PST,Max TemperatureF,Mean TemperatureF,Min TemperatureF,Max Dew PointF,MeanDew PointF,Min DewpointF,Max Humidity, Mean Humidity, Min Humidity, Max Sea Level PressureIn, Mean Sea Level PressureIn, Min Sea Level PressureIn, Max VisibilityMiles, Mean VisibilityMiles, Min VisibilityMiles, Max Wind SpeedMPH, Mean Wind SpeedMPH, Max Gust SpeedMPH,PrecipitationIn, CloudCover, Events, WindDirDegrees
2013-1-1,61,52,43,36,31,21,76,49,22,30.25,30.17,30.10,10,10,8,7,1,12,0.00,2,,55
2013-1-2,65,53,40,40,31,20,79,49,18,30.14,30.07,30.04,10,10,10,7,0,10,0.00,0,,260
2013-1-3,71,55,39,33,25,14,76,44,11,30.18,30.10,30.06,10,10,9,7,0,10,0.00,0,,230
2013-1-4,68,56,43,42,22,3,71,40,8,30.27,30.21,30.17,10,10,10,7,1,9,0.00,0,,338
2013-1-5,67,54,41,44,27,13,77,45,12,30.29,30.23,30.18,10,10,9,7,0,10,0.00,0,,-1
2013-1-6,59,53,46,47,44,38,93,74,55,30.21,30.15,30.03,10,6,2,10,1,21,0.12,6,Rain,90
2013-1-7,69,57,44,42,35,25,86,54,22,30.09,30.02,29.97,10,10,10,10,2,18,0.00,0,,306
2013-1-8,73,58,43,47,39,28,76,50,24,30.11,30.07,30.02,10,10,10,7,1,10,0.00,0,,280
2013-1-9,69,58,46,52,45,37,89,61,32,30.13,30.06,30.01,10,9,6,7,0,10,0.00,3,,270
2013-1-10,59,52,45,50,38,18,89,55,21,30.11,29.98,29.93,10,9,4,12,4,21,0.03,5,Rain,304
2013-1-11,56,50,44,24,21,18,45,35,24,30.20,30.13,30.07,10,10,10,12,5,22,0.00,0,,323
2013-1-12,57,48,39,25,21,12,49,34,18,30.17,30.11,30.07,10,10,10,9,1,14,0.00,0,,335
2013-1-13,58,48,37,30,21,11,54,36,17,30.18,30.11,30.06,10,10,7,10,2,14,0.00,0,,302
2013-1-14,58,46,34,25,15,0,64,37,10,30.34,30.26,30.16,10,10,10,7,1,12,0.00,0,,90
2013-1-15,61,49,36,37,21,8,71,42,12,30.46,30.38,30.34,10,10,10,9,1,14,0.00,0,,270
2013-1-16,69,54,38,40,32,20,70,43,16,30.35,30.25,30.13,10,10,9,7,0,10,0.00,0,,150
2013-1-17,78,60,42,37,25,14,76,43,9,30.17,30.11,30.04,10,10,9,5,1,8,0.00,0,,310
2013-1-18,79,65,50,29,18,9,32,20,7,30.15,30.10,30.04,10,10,10,7,1,9,0.00,0,,35
2013-1-19,79,65,50,31,18,6,36,21,6,30.18,30.12,30.06,10,10,10,5,1,8,0.00,0,,12
2013-1-20,81,65,48,32,14,-6,45,25,4,30.14,30.08,30.00,10,10,9,7,2,10,0.00,0,,19
2013-1-21,81,63,45,31,20,3,41,23,5,30.09,30.04,29.99,10,10,10,8,1,12,0.00,0,,280
2013-1-22,81,66,51,32,16,3,36,21,5,30.09,30.05,30.00,10,10,10,8,1,16,0.00,0,,39
2013-1-23,78,66,54,51,31,21,48,31,14,30.14,30.05,30.01,10,10,9,8,2,12,0.02,2,Rain,109
2013-1-24,66,61,55,55,53,50,93,76,58,30.21,30.14,30.10,10,7,2,12,3,17,0.79,7,Rain,93
2013-1-25,67,63,59,58,56,55,93,81,68,30.11,30.03,29.95,10,9,2,9,2,14,0.17,8,Rain,76
2013-1-26,68,62,55,58,55,34,93,76,59,30.00,29.93,29.89,10,8,2,8,1,13,0.02,7,Rain,288
2013-1-27,62,57,51,55,49,27,100,71,41,30.03,29.99,29.96,10,7,1,8,2,15,0.03,7,Rain,103
2013-1-28,61,55,48,32,26,21,39,31,22,30.18,30.10,30.03,10,10,10,10,5,21,0.00,0,,310
2013-1-29,61,53,45,38,30,26,58,46,33,30.24,30.19,30.15,10,10,10,6,2,,0.00,0,,70
2013-1-30,70,58,45,42,40,37,63,50,37,30.33,30.25,30.22,10,10,10,5,2,,0.00,0,,275
2013-1-31,78,63,47,48,41,34,77,49,21,30.22,30.13,30.09,10,10,10,7,1,10,0.00,0,,270